This is the latest recevied weather packets stored in our database for station/object JE4YKI-13. If no packets are shown the sender has not sent any weather packets the latest 10 day(s).
| Time | Temp. | Humidity | Pressure | Rain* | Wind** | Luminosity | Snow |
|---|---|---|---|---|---|---|---|
| 1777305117 | 15° C | 89% | 1011 hPa | 0 mm | - | - | - |
| 1777304517 | 14.44° C | 91% | 1011 hPa | 0 mm | - | - | - |
| 1777303917 | 14.44° C | 91% | 1011 hPa | 0 mm | - | - | - |
| 1777303316 | 14.44° C | 89% | 1011.1 hPa | 0 mm | - | - | - |
| 1777302716 | 15° C | 90% | 1011.1 hPa | 0 mm | - | - | - |
| 1777302115 | 15° C | 88% | 1011.2 hPa | 0 mm | - | - | - |
| 1777301515 | 15.56° C | 92% | 1011.3 hPa | 0 mm | - | - | - |
| 1777300914 | 15.56° C | 92% | 1011.3 hPa | 0 mm | - | - | - |
| 1777300314 | 15.56° C | 91% | 1011.4 hPa | 0 mm | - | - | - |
| 1777299714 | 15.56° C | 92% | 1011.4 hPa | 0 mm | - | - | - |
| 1777299113 | 15.56° C | 91% | 1011.4 hPa | 0 mm | - | - | - |
| 1777298513 | 15.56° C | 91% | 1011.5 hPa | 0 mm | - | - | - |
| 1777297912 | 15.56° C | 90% | 1011.5 hPa | 0 mm | - | - | - |
| 1777297312 | 16.11° C | 88% | 1011.7 hPa | 0 mm | - | - | - |
| 1777296713 | 16.67° C | 85% | 1011.5 hPa | 0 mm | - | - | - |
| 1777296112 | 16.67° C | 86% | 1011.5 hPa | 0 mm | - | - | - |
| 1777295613 | 16.67° C | 85% | 1011.4 hPa | 0 mm | - | - | - |
| 1777295511 | 16.67° C | 85% | 1011.4 hPa | 0 mm | - | - | - |
| 1777294911 | 16.67° C | 88% | 1011.3 hPa | 0 mm | - | - | - |
| 1777294311 | 16.67° C | 90% | 1011.4 hPa | 0 mm | - | - | - |
| 1777293710 | 16.67° C | 90% | 1011.4 hPa | 0 mm | - | - | - |
| 1777293110 | 16.67° C | 90% | 1011.3 hPa | 0 mm | - | - | - |
| 1777292510 | 16.67° C | 90% | 1011.3 hPa | 0 mm | - | - | - |
| 1777291909 | 16.67° C | 90% | 1011.2 hPa | 0 mm | - | - | - |
| 1777291309 | 16.67° C | 90% | 1011.2 hPa | 0 mm | - | - | - |
* Rain latest hour (hover to see other rain measurements)
** Current wind speed in m/s (hover to see current wind gust speed)